METAR UND TAF INFORMATION
RKSI 240030Z 19010KT 6000 -RA SCT006 OVC020 25/22 Q1004 NOSIG

 FLUGHAFENKARTE

 RUNWAY INFORMATION
Runway 15L Runway length 12303 ft Runway width 197 ft
Runway elevation 23 ft Runway displaced threshold 0 ft Runway heading 145
Runway 33R Runway length 12303 ft Runway width 197 ft
Runway elevation 23 ft Runway displaced threshold 0 ft Runway heading 325
Runway 15R Runway length 12303 ft Runway width 197 ft
Runway elevation 23 ft Runway displaced threshold 0 ft Runway heading 145
Runway 33L Runway length 12303 ft Runway width 197 ft
Runway elevation 23 ft Runway displaced threshold 0 ft Runway heading 325
Runway 16 Runway length 13000 ft Runway width 197 ft
Runway elevation 0 ft Runway displaced threshold 0 ft Runway heading 153
Runway 34 Runway length 13000 ft Runway width 197 ft
Runway elevation 0 ft Runway displaced threshold 0 ft Runway heading 333

 AIRPORT FREQUENCIES
Type APP Name SEOUL APP Frequency 120.8 MHZ
Type ATIS Name ATIS Frequency 23.025 MHZ
Type CLD Name CLNC DEL Frequency 121 MHZ
Type DEP Name SEOUL DEP Frequency 121.35 MHZ
Type GND Name GND Frequency 121.4 MHZ
Type RMP Name RAMP CON Frequency 121.65 MHZ
Type TWR Name TWR Frequency 118.2 MHZ

 AIRPORT NEAR NAVIGATION AIDS
Type VOR-DME Name Incheon Frequency 113800 KHZ